Location: Poughquag
(41.6090°N, 73.6820°W)
Time: 12:48:14
(UTC-04:00)

Tiros 1 despin weight - Pass Details

Date: 04 June 2020
Orbit: 593 x 642 km, 48.2° (Epoch: 07 July)

Event Time Altitude Azimuth Distance (km) Brightness Sun altitude
Rises 12:09:45 0° 282° (WNW) 2,921 ? 68.9°
Reaches altitude 10° 12:12:15 10° 291° (WNW) 2,006 ? 69.1°
Maximum altitude 12:16:30 35° 358° (N) 1,001 ? 69.4°
Drops below altitude 10° 12:20:42 10° 66° (ENE) 1,977 ? 69.8°
Sets 12:23:09 0° 75° (ENE) 2,873 ? 69.9°
